| time (UTC) | temp F | wind direction | speed knots | gust knots | rain 1hr in | rain 24hr in | rain mn in | humidity % | barometer mb |
| 20260901223046 | 61 | 355 | 0.0 | 0.0 | 0.01 | 0.13 | 0.13 | 90 | 1017.6 |
| 20260901221554 | 61 | 355 | 0.0 | 1.7 | 0.01 | 0.13 | 0.13 | 90 | 1017.5 |
| 20260901220040 | 61 | 300 | 0.0 | 0.0 | 0.01 | 0.13 | 0.13 | 89 | 1017.8 |
| 20260901214537 | 61 | 300 | 0.0 | 0.9 | 0.03 | 0.13 | 0.13 | 89 | 1017.8 |
| 20260901213035 | 61 | 300 | 0.0 | 0.0 | 0.02 | 0.12 | 0.12 | 89 | 1017.7 |
| 20260901211535 | 61 | 300 | 0.0 | 0.0 | 0.02 | 0.12 | 0.12 | 89 | 1017.7 |
| 20260901210034 | 61 | 300 | 0.0 | 0.0 | 0.02 | 0.12 | 0.12 | 89 | 1017.5 |
| 20260901204533 | 61 | 300 | 0.0 | 0.9 | 0.01 | 0.10 | 0.10 | 89 | 1017.3 |
| 20260901203034 | 61 | 300 | 0.0 | 0.0 | 0.01 | 0.10 | 0.10 | 89 | 1017.3 |
| 20260901201532 | 61 | 321 | 0.0 | 0.0 | 0.02 | 0.10 | 0.10 | 88 | 1017.2 |
| 20260901200038 | 61 | 321 | 0.0 | 0.0 | 0.02 | 0.10 | 0.10 | 88 | 1017.2 |
| 20260901194530 | 62 | 321 | 0.0 | 0.9 | 0.01 | 0.09 | 0.09 | 89 | 1017.3 |
| 20260901193029 | 62 | 321 | 0.0 | 1.7 | 0.01 | 0.09 | 0.09 | 88 | 1017.2 |
| 20260901191549 | 62 | 321 | 0.0 | 0.9 | 0.01 | 0.08 | 0.08 | 88 | 1017.1 |
| 20260901190025 | 63 | 321 | 0.0 | 1.7 | 0.02 | 0.08 | 0.08 | 88 | 1016.9 |
| 20260901184524 | 63 | 321 | 0.0 | 0.9 | 0.06 | 0.08 | 0.08 | 88 | 1016.9 |
| 20260901183023 | 63 | 321 | 0.0 | 0.9 | 0.07 | 0.08 | 0.08 | 87 | 1017.1 |
| 20260901181522 | 64 | 321 | 0.0 | 0.9 | 0.06 | 0.07 | 0.07 | 87 | 1017.1 |
| 20260901180019 | 64 | 321 | 0.0 | 0.9 | 0.05 | 0.06 | 0.06 | 85 | 1016.8 |
| 20260901174517 | 65 | 321 | 0.0 | 0.9 | 0.00 | 0.01 | 0.01 | 83 | 1016.6 |
| 20260901173022 | 66 | 321 | 0.0 | 0.9 | 0.00 | 0.01 | 0.01 | 81 | 1016.9 |
| 20260901171521 | 67 | 320 | 0.0 | 1.7 | 0.00 | 0.01 | 0.01 | 80 | 1016.8 |
| 20260901170014 | 67 | 320 | 0.0 | 2.6 | 0.00 | 0.01 | 0.01 | 80 | 1016.6 |
| 20260901164531 | 68 | 317 | 0.0 | 1.7 | 0.00 | 0.01 | 0.01 | 82 | 1016.6 |
| 20260901163009 | 68 | 302 | 0.9 | 6.1 | 0.00 | 0.01 | 0.01 | 82 | 1016.4 |
| 20260901161513 | 69 | 24 | 0.0 | 1.7 | 0.00 | 0.01 | 0.01 | 82 | 1016.3 |
| 20260901160007 | 69 | 5 | 0.0 | 2.6 | 0.00 | 0.01 | 0.01 | 83 | 1016.4 |
| 20260901154504 | 69 | 163 | 0.0 | 2.6 | 0.00 | 0.01 | 0.01 | 84 | 1016.3 |
| 20260901153005 | 70 | 142 | 0.0 | 4.3 | 0.00 | 0.01 | 0.01 | 85 | 1016.5 |
| 20260901151502 | 69 | 81 | 0.0 | 1.7 | 0.01 | 0.01 | 0.01 | 87 | 1016.6 |
| 20260901150100 | 69 | 81 | 0.0 | 1.7 | 0.01 | 0.01 | 0.01 | 88 | 1016.6 |
| 20260901144559 | 68 | 81 | 0.0 | 0.9 | 0.01 | 0.01 | 0.01 | 89 | 1016.8 |
| 20260901143057 | 68 | 81 | 0.0 | 0.9 | 0.01 | 0.01 | 0.01 | 89 | 1016.6 |
| 20260901141552 | 67 | 81 | 0.0 | 0.9 | 0.00 | 0.00 | 0.00 | 89 | 1016.9 |
| 20260901140048 | 67 | 81 | 0.0 | 0.0 | 0.00 | 0.00 | 0.00 | 88 | 1017.2 |
| 20260901134547 | 67 | 81 | 0.0 | 0.9 | 0.00 | 0.00 | 0.00 | 88 | 1017.1 |
| 20260901133045 | 66 | 81 | 0.0 | 1.7 | 0.00 | 0.00 | 0.00 | 88 | 1016.7 |
| 20260901131547 | 66 | 81 | 0.0 | 0.9 | 0.00 | 0.00 | 0.00 | 88 | 1016.9 |
| 20260901130055 | 66 | 81 | 0.0 | 0.0 | 0.00 | 0.00 | 0.00 | 88 | 1017.0 |
| 20260901124542 | 66 | 81 | 0.0 | 0.0 | 0.00 | 0.00 | 0.00 | 87 | 1016.9 |
| 20260901123041 | 66 | 81 | 0.0 | 1.7 | 0.00 | 0.00 | 0.00 | 87 | 1016.9 |
| 20260901121540 | 66 | 81 | 0.0 | 0.9 | 0.00 | 0.00 | 0.00 | 87 | 1016.9 |
| 20260901120040 | 66 | 81 | 0.0 | 0.9 | 0.00 | 0.00 | 0.00 | 87 | 1016.9 |
| 20260901114603 | 65 | 81 | 0.0 | 0.0 | 0.00 | 0.01 | 0.00 | 88 | 1016.8 |
| 20260901113039 | 65 | 81 | 0.0 | 2.6 | 0.00 | 0.01 | 0.00 | 88 | 1016.5 |
| 20260901111541 | 65 | 81 | 0.0 | 0.0 | 0.00 | 0.01 | 0.00 | 88 | 1016.6 |
| 20260901110038 | 65 | 81 | 0.0 | 0.0 | 0.00 | 0.01 | 0.00 | 88 | 1016.5 |
| 20260901104535 | 65 | 81 | 0.0 | 0.0 | 0.00 | 0.01 | 0.00 | 87 | 1016.5 |
| 20260901103036 | 65 | 81 | 0.0 | 0.0 | 0.00 | 0.01 | 0.00 | 87 | 1016.4 |
| 20260901101535 | 65 | 81 | 0.0 | 0.0 | 0.00 | 0.01 | 0.00 | 87 | 1016.2 |
| 20260901100034 | 65 | 81 | 0.0 | 0.0 | 0.00 | 0.01 | 0.00 | 87 | 1016.2 |
| 20260901094538 | 65 | 81 | 0.0 | 0.0 | 0.00 | 0.01 | 0.00 | 87 | 1016.2 |
| 20260901093033 | 65 | 81 | 0.0 | 0.0 | 0.00 | 0.01 | 0.00 | 87 | 1016.2 |
| 20260901091532 | 65 | 81 | 0.0 | 0.0 | 0.00 | 0.01 | 0.00 | 87 | 1016.2 |
| 20260901090030 | 65 | 81 | 0.0 | 0.0 | 0.00 | 0.01 | 0.00 | 87 | 1016.2 |
| 20260901084530 | 65 | 81 | 0.0 | 0.0 | 0.00 | 0.01 | 0.00 | 86 | 1016.3 |
| 20260901083027 | 65 | 81 | 0.0 | 0.0 | 0.00 | 0.01 | 0.00 | 86 | 1016.6 |
| 20260901081525 | 65 | 81 | 0.0 | 0.0 | 0.00 | 0.01 | 0.00 | 86 | 1017.0 |
| 20260901080025 | 65 | 81 | 0.0 | 0.0 | 0.00 | 0.01 | 0.00 | 86 | 1017.1 |
| 20260901074524 | 66 | 81 | 0.0 | 0.0 | 0.00 | 0.01 | 0.00 | 86 | 1016.9 |
| 20260901073025 | 65 | 81 | 0.0 | 0.0 | 0.00 | 0.01 | 0.00 | 86 | 1016.9 |
| 20260901071522 | 66 | 81 | 0.0 | 0.0 | 0.00 | 0.01 | 0.00 | 86 | 1017.0 |
| 20260901070023 | 65 | 81 | 0.0 | 0.0 | 0.00 | 0.01 | 0.00 | 86 | 1017.0 |
| 20260901064521 | 66 | 81 | 0.0 | 0.0 | 0.00 | 0.01 | 0.00 | 86 | 1017.1 |
| 20260901063025 | 66 | 81 | 0.0 | 0.0 | 0.00 | 0.01 | 0.00 | 85 | 1017.3 |
| 20260901061525 | 65 | 81 | 0.0 | 0.0 | 0.00 | 0.01 | 0.00 | 85 | 1017.2 |
| 20260901060018 | 66 | 81 | 0.0 | 0.0 | 0.00 | 0.01 | 0.00 | 85 | 1017.2 |
| 20260901054518 | 66 | 81 | 0.0 | 0.0 | 0.00 | 0.01 | 0.00 | 85 | 1017.1 |
| 20260901053016 | 66 | 81 | 0.0 | 0.0 | 0.00 | 0.01 | 0.00 | 85 | 1017.4 |
| 20260901051515 | 66 | 81 | 0.0 | 0.0 | 0.00 | 0.01 | 0.00 | 85 | 1017.4 |
| 20260901050014 | 66 | 81 | 0.0 | 0.0 | 0.00 | 0.01 | 0.00 | 84 | 1017.4 |
| 20260901044531 | 66 | 81 | 0.0 | 0.0 | 0.00 | 0.01 | 0.00 | 84 | 1017.6 |
| 20260901043012 | 66 | 81 | 0.0 | 0.0 | 0.00 | 0.01 | 0.00 | 84 | 1017.4 |
| 20260901041522 | 66 | 81 | 0.0 | 0.0 | 0.00 | 0.01 | 0.00 | 84 | 1017.6 |
| 20260901040008 | 66 | 81 | 0.0 | 0.0 | 0.00 | 0.01 | 0.00 | 84 | 1017.8 |
| 20260901034507 | 66 | 81 | 0.0 | 0.0 | 0.00 | 0.03 | 0.01 | 83 | 1017.7 |
| 20260901033021 | 66 | 81 | 0.0 | 0.0 | 0.00 | 0.03 | 0.01 | 84 | 1017.6 |
| 20260901031509 | 66 | 81 | 0.0 | 0.0 | 0.00 | 0.03 | 0.01 | 84 | 1017.7 |
| 20260901030006 | 66 | 81 | 0.0 | 0.0 | 0.00 | 0.03 | 0.01 | 84 | 1017.8 |
| 20260901024507 | 67 | 81 | 0.0 | 0.0 | 0.00 | 0.03 | 0.01 | 83 | 1017.7 |
| 20260901023005 | 67 | 81 | 0.0 | 0.9 | 0.00 | 0.03 | 0.01 | 83 | 1017.8 |
| 20260901021511 | 67 | 81 | 0.0 | 0.0 | 0.00 | 0.03 | 0.01 | 83 | 1017.8 |
| 20260901020004 | 67 | 81 | 0.0 | 0.0 | 0.00 | 0.03 | 0.01 | 83 | 1018.0 |
| 20260901014504 | 67 | 81 | 0.0 | 0.0 | 0.00 | 0.03 | 0.01 | 83 | 1018.1 |
| 20260901013003 | 67 | 81 | 0.0 | 0.0 | 0.00 | 0.03 | 0.01 | 82 | 1018.1 |
| 20260901011504 | 67 | 81 | 0.0 | 0.9 | 0.00 | 0.03 | 0.01 | 82 | 1017.9 |
| 20260901010006 | 68 | 81 | 0.0 | 0.0 | 0.00 | 0.03 | 0.01 | 82 | 1017.9 |
| 20260901004502 | 68 | 81 | 0.0 | 0.9 | 0.00 | 0.03 | 0.01 | 81 | 1017.8 |
| 20260901003003 | 68 | 81 | 0.0 | 0.9 | 0.00 | 0.03 | 0.01 | 81 | 1017.9 |
| 20260901001601 | 69 | 81 | 0.0 | 1.7 | 0.00 | 0.03 | 0.01 | 80 | 1017.9 |
| 20260901000059 | 69 | 81 | 0.0 | 2.6 | 0.00 | 0.03 | 0.01 | 80 | 1017.9 |
| 20260831234604 | 69 | 81 | 0.0 | 0.9 | 0.00 | 0.03 | 0.01 | 79 | 1017.9 |
| 20260831233105 | 70 | 81 | 0.0 | 1.7 | 0.00 | 0.03 | 0.01 | 79 | 1017.9 |
| 20260831231601 | 70 | 81 | 0.0 | 1.7 | 0.00 | 0.03 | 0.01 | 78 | 1017.9 |
| 20260831230106 | 71 | 81 | 0.0 | 1.7 | 0.00 | 0.03 | 0.01 | 77 | 1017.8 |
| 20260831224557 | 71 | 81 | 0.0 | 0.9 | 0.00 | 0.03 | 0.01 | 77 | 1017.8 |